Hourly Weather Daman

Today, 10 July, Friday

Time Temperature Precipitation Wind Pressure Humidity
00:00 +29°C° 0.6 mm 6 mps 751 mmHg 86%
01:00 +29°C° 0.6 mm 6 mps 751 mmHg 86%
02:00 +29°C° 0.6 mm 6 mps 751 mmHg 86%
03:00 +29°C° 0.1 mm 6 mps 750 mmHg 86%
04:00 +29°C° 0.1 mm 6 mps 750 mmHg 86%
05:00 +29°C° 0 mm 6 mps 750 mmHg 87%
06:00 +30°C° 0.3 mm 6 mps 751 mmHg 85%
07:00 +30°C° 0.3 mm 6 mps 751 mmHg 82%
08:00 +32°C° 0.3 mm 6 mps 752 mmHg 80%
09:00 +33°C° 0.5 mm 6 mps 752 mmHg 76%
10:00 +33°C° 0.5 mm 7 mps 752 mmHg 72%
11:00 +34°C° 0.5 mm 7 mps 752 mmHg 69%
12:00 +34°C° 0.2 mm 7 mps 751 mmHg 67%
13:00 +34°C° 0.2 mm 7 mps 751 mmHg 66%
14:00 +35°C° 0.2 mm 8 mps 751 mmHg 65%
15:00 +34°C° 0.1 mm 8 mps 750 mmHg 67%
16:00 +34°C° 0.1 mm 7 mps 750 mmHg 69%
17:00 +33°C° 0.1 mm 7 mps 750 mmHg 70%
18:00 +33°C° 0.2 mm 6 mps 751 mmHg 73%
19:00 +32°C° 0.2 mm 6 mps 751 mmHg 76%
20:00 +30°C° 0.2 mm 6 mps 752 mmHg 79%
21:00 +30°C° 0 mm 6 mps 752 mmHg 80%
22:00 +30°C° 0 mm 6 mps 752 mmHg 81%
23:00 +30°C° 0 mm 6 mps 752 mmHg 83%

Tomorrow, 11 July, Saturday

Time Temperature Precipitation Wind Pressure Humidity
00:00 +30°C° 0.2 mm 6 mps 751 mmHg 83%
01:00 +30°C° 0.2 mm 6 mps 751 mmHg 84%
02:00 +29°C° 0.2 mm 7 mps 751 mmHg 85%
03:00 +29°C° 0.1 mm 6 mps 751 mmHg 85%
04:00 +29°C° 0.1 mm 6 mps 750 mmHg 86%
05:00 +29°C° 0.1 mm 6 mps 750 mmHg 86%
06:00 +30°C° 0.1 mm 7 mps 751 mmHg 83%
07:00 +30°C° 0.1 mm 7 mps 751 mmHg 81%
08:00 +32°C° 0.1 mm 7 mps 751 mmHg 79%
09:00 +33°C° 0.2 mm 7 mps 751 mmHg 76%
10:00 +33°C° 0.2 mm 7 mps 751 mmHg 74%
11:00 +34°C° 0.2 mm 7 mps 751 mmHg 71%
12:00 +34°C° 0.2 mm 8 mps 751 mmHg 71%
13:00 +34°C° 0.2 mm 8 mps 750 mmHg 70%
14:00 +34°C° 0.2 mm 8 mps 750 mmHg 70%
15:00 +34°C° 0.1 mm 8 mps 750 mmHg 71%
16:00 +33°C° 0.1 mm 8 mps 750 mmHg 72%
17:00 +33°C° 0.1 mm 8 mps 750 mmHg 74%
18:00 +32°C° 0.1 mm 8 mps 750 mmHg 77%
19:00 +32°C° 0.1 mm 7 mps 751 mmHg 80%
20:00 +30°C° 0.1 mm 7 mps 751 mmHg 83%
21:00 +30°C° 0.1 mm 7 mps 751 mmHg 83%
22:00 +30°C° 0.1 mm 7 mps 751 mmHg 83%
23:00 +30°C° 0.1 mm 7 mps 752 mmHg 83%

Day after tomorrow, 12 July, Sunday

Time Temperature Precipitation Wind Pressure Humidity
00:00 +30°C° 0.1 mm 7 mps 751 mmHg 83%
01:00 +30°C° 0.1 mm 7 mps 751 mmHg 83%
02:00 +30°C° 0.1 mm 7 mps 751 mmHg 83%
03:00 +29°C° 0.2 mm 7 mps 750 mmHg 83%
04:00 +29°C° 0.2 mm 7 mps 750 mmHg 84%
05:00 +29°C° 0.2 mm 7 mps 750 mmHg 84%
06:00 +30°C° 0.2 mm 7 mps 751 mmHg 82%
07:00 +30°C° 0.2 mm 7 mps 751 mmHg 80%
08:00 +32°C° 0.2 mm 7 mps 751 mmHg 77%
09:00 +32°C° 0.5 mm 8 mps 751 mmHg 75%
10:00 +33°C° 0.5 mm 8 mps 751 mmHg 73%
11:00 +33°C° 0.5 mm 8 mps 751 mmHg 71%
12:00 +34°C° 0.7 mm 8 mps 751 mmHg 70%
13:00 +34°C° 0.7 mm 8 mps 751 mmHg 70%
14:00 +34°C° 0.7 mm 8 mps 751 mmHg 69%
15:00 +34°C° 0.6 mm 8 mps 750 mmHg 71%
16:00 +33°C° 0.6 mm 8 mps 750 mmHg 72%
17:00 +33°C° 0.6 mm 8 mps 750 mmHg 74%
18:00 +32°C° 0.3 mm 7 mps 750 mmHg 77%
19:00 +30°C° 0.3 mm 7 mps 751 mmHg 80%
20:00 +30°C° 0.3 mm 6 mps 751 mmHg 83%
21:00 +30°C° 0.4 mm 6 mps 751 mmHg 84%
22:00 +29°C° 0.4 mm 6 mps 751 mmHg 84%
23:00 +29°C° 0.4 mm 6 mps 752 mmHg 85%

13 July, Monday

Time Temperature Precipitation Wind Pressure Humidity
00:00 +29°C° 0.2 mm 6 mps 751 mmHg 85%
01:00 +29°C° 0.2 mm 6 mps 751 mmHg 85%
02:00 +29°C° 0.2 mm 6 mps 750 mmHg 85%
03:00 +29°C° 0.3 mm 6 mps 750 mmHg 86%
04:00 +29°C° 0.3 mm 6 mps 750 mmHg 86%
05:00 +29°C° 0.3 mm 6 mps 750 mmHg 86%
06:00 +29°C° 0.6 mm 6 mps 750 mmHg 84%
07:00 +30°C° 0.6 mm 6 mps 751 mmHg 82%
08:00 +30°C° 0.6 mm 6 mps 751 mmHg 80%
09:00 +32°C° 1 mm 6 mps 751 mmHg 78%
10:00 +32°C° 1 mm 7 mps 751 mmHg 77%
11:00 +33°C° 1 mm 7 mps 751 mmHg 75%
12:00 +33°C° 0.8 mm 7 mps 751 mmHg 74%
13:00 +33°C° 0.8 mm 7 mps 750 mmHg 74%
14:00 +34°C° 0.8 mm 7 mps 750 mmHg 73%
15:00 +33°C° 0.6 mm 7 mps 750 mmHg 74%
16:00 +33°C° 0.6 mm 6 mps 749 mmHg 76%
17:00 +33°C° 0.6 mm 6 mps 749 mmHg 77%
18:00 +32°C° 0.6 mm 6 mps 750 mmHg 80%
19:00 +30°C° 0.6 mm 6 mps 750 mmHg 82%
20:00 +30°C° 0.6 mm 5 mps 751 mmHg 85%
21:00 +30°C° 0.6 mm 5 mps 751 mmHg 86%
22:00 +29°C° 0.6 mm 5 mps 751 mmHg 86%
23:00 +29°C° 0.6 mm 5 mps 752 mmHg 87%

14 July, Tuesday

Time Temperature Precipitation Wind Pressure Humidity
00:00 +29°C° 0.8 mm 5 mps 751 mmHg 87%
01:00 +29°C° 0.8 mm 5 mps 751 mmHg 87%
02:00 +29°C° 0.8 mm 5 mps 751 mmHg 88%
03:00 +29°C° 0.5 mm 4 mps 751 mmHg 88%
04:00 +29°C° 0.5 mm 4 mps 751 mmHg 88%
05:00 +29°C° 0.5 mm 4 mps 751 mmHg 88%
06:00 +29°C° 0.5 mm 4 mps 751 mmHg 86%
07:00 +30°C° 0.5 mm 4 mps 752 mmHg 84%
08:00 +30°C° 0.5 mm 4 mps 752 mmHg 82%
09:00 +32°C° 1.2 mm 4 mps 752 mmHg 80%
10:00 +32°C° 1.2 mm 5 mps 752 mmHg 79%
11:00 +33°C° 1.2 mm 5 mps 752 mmHg 77%
12:00 +33°C° 1.2 mm 4 mps 751 mmHg 75%
13:00 +33°C° 1.2 mm 4 mps 751 mmHg 73%
14:00 +34°C° 1.2 mm 4 mps 751 mmHg 72%
15:00 +33°C° 0.3 mm 4 mps 750 mmHg 75%
16:00 +31°C° 0.3 mm 3 mps 750 mmHg 77%
17:00 +31°C° 0.3 mm 3 mps 750 mmHg 80%
18:00 +30°C° 0.1 mm 3 mps 750 mmHg 82%
19:00 +30°C° 0.1 mm 3 mps 751 mmHg 83%
20:00 +30°C° 0.1 mm 3 mps 751 mmHg 85%
21:00 +30°C° 0.1 mm 3 mps 751 mmHg 85%
22:00 +30°C° 0.1 mm 3 mps 752 mmHg 85%
23:00 +29°C° 0.1 mm 3 mps 752 mmHg 86%

15 July, Wednesday

Time Temperature Precipitation Wind Pressure Humidity
00:00 +29°C° 0.1 mm 3 mps 751 mmHg 86%
01:00 +29°C° 0.1 mm 3 mps 751 mmHg 86%
02:00 +29°C° 0.1 mm 3 mps 751 mmHg 86%
03:00 +29°C° 0.1 mm 3 mps 750 mmHg 86%
04:00 +29°C° 0.1 mm 3 mps 750 mmHg 87%
05:00 +29°C° 0.1 mm 3 mps 750 mmHg 87%
06:00 +29°C° 0.1 mm 3 mps 751 mmHg 86%
07:00 +29°C° 0.1 mm 3 mps 751 mmHg 85%
08:00 +29°C° 0.1 mm 3 mps 751 mmHg 85%
09:00 +30°C° 0.6 mm 3 mps 751 mmHg 82%
10:00 +31°C° 0.6 mm 3 mps 751 mmHg 78%
11:00 +31°C° 0.6 mm 3 mps 751 mmHg 75%
12:00 +31°C° 0.4 mm 3 mps 751 mmHg 75%
13:00 +31°C° 0.4 mm 3 mps 750 mmHg 75%
14:00 +31°C° 0.4 mm 3 mps 750 mmHg 75%
15:00 +31°C° 0.5 mm 3 mps 749 mmHg 75%
16:00 +31°C° 0.5 mm 3 mps 749 mmHg 76%
17:00 +31°C° 0.5 mm 3 mps 749 mmHg 76%
18:00 +30°C° 0.7 mm 3 mps 749 mmHg 79%
19:00 +30°C° 0.7 mm 3 mps 749 mmHg 82%
20:00 +29°C° 0.7 mm 2 mps 750 mmHg 85%
21:00 +29°C° 0 mm 3 mps 750 mmHg 86%
22:00 +29°C° 0 mm 3 mps 750 mmHg 86%
23:00 +29°C° 0 mm 3 mps 750 mmHg 87%
Show more